Weather History for West Palm Beach, FL

Change the Weather History Date:

Wednesday, August 27, 2014

  Actual Average Record
Temperature  
Mean Temperature 83 °F 83 °F  
Max Temperature 91 °F 90 °F 96 °F (1912)
Min Temperature 75 °F 76 °F 68 °F (1921)
Degree Days  
Heating Degree Days 0 0  
Month to date heating degree days 0 0  
Since 1 June heating degree days 0 0  
Since 1 July heating degree days 0 0  
Cooling Degree Days 18 18  
Month to date cooling degree days 524 486  
Year to date cooling degree days 2928 2634  
Since 1 June cooling degree days 1576 1525  
Growing Degree Days 33 (Base 50)    
Moisture  
Dew Point 71 °F    
Average Humidity 70    
Maximum Humidity 87    
Minimum Humidity 52    
Precipitation  
Precipitation 0.00 in 0.28 in 3.99 in (1964)
Month to date precipitation 9.42 6.86  
Year to date precipitation 42.85 39.63  
Snow  
Snow 0.00 in - - ()
Month to date snowfall 0.0  
Since 1 June snowfall 0.0  
Since 1 July snowfall 0.0  
Snow Depth 0.00 in    
Sea Level Pressure  
Sea Level Pressure 29.93 in    
Wind  
Wind Speed 9 mph (NE)    
Max Wind Speed 16 mph    
Max Gust Speed 21 mph    
Visibility 10 miles    
Events      
T = Trace of Precipitation, MM = Missing Value Source: NWS Daily Summary

Daily Weather History Graph

Daily Weather History Graph

Search for Another Location

Airport:

Trip Planner

Search our weather history database for the weather conditions in past years. The results will help you decide how hot, cold, wet, or windy it might be!

Date:

Astronomy

Aug. 27, 2014 Rise Set
Actual Time 6:57 AM EDT 7:45 PM EDT
Civil Twilight 6:34 AM EDT 8:09 PM EDT
Nautical Twilight 6:06 AM EDT 8:37 PM EDT
Astronomical Twilight 5:37 AM EDT 9:05 PM EDT
Moon 8:37 AM EDT (8/27) 8:54 PM EDT (8/27)
Length of Visible Light 13h 35m
Length of Day
12h 47m
Waxing Crescent, 4% of the Moon is Illuminated
Aug 27
Waxing Crescent
Sep 2
First Quarter
Sep 8
Full
Sep 15
Last Quarter
Sep 24
New

Hourly Weather History & Observations

Time (EDT) Temp. Heat Index Dew Point Humidity Pressure Visibility Wind Dir Wind Speed Gust Speed Precip Events Conditions
12:53 AM 82.9 °F 85.4 °F 66.9 °F 58% 29.89 in 10.0 mi NE 6.9 mph - N/A   Partly Cloudy
1:53 AM 82.0 °F 84.5 °F 66.9 °F 60% 29.89 in 10.0 mi NNE 5.8 mph - N/A   Partly Cloudy
2:53 AM 82.0 °F 84.9 °F 68.0 °F 62% 29.88 in 10.0 mi NNE 5.8 mph - N/A   Partly Cloudy
3:53 AM 82.9 °F 86.5 °F 69.1 °F 63% 29.88 in 10.0 mi NE 6.9 mph - N/A   Partly Cloudy
4:53 AM 82.0 °F 85.5 °F 69.1 °F 65% 29.88 in 10.0 mi NNE 4.6 mph - N/A   Partly Cloudy
5:53 AM 75.9 °F - 72.0 °F 87% 29.89 in 10.0 mi NW 4.6 mph - N/A   Partly Cloudy
6:53 AM 75.9 °F - 71.1 °F 85% 29.91 in 10.0 mi NNW 3.5 mph - N/A   Partly Cloudy
7:53 AM 78.1 °F - 73.0 °F 84% 29.93 in 10.0 mi NW 4.6 mph - N/A   Scattered Clouds
8:53 AM 84.9 °F 90.7 °F 72.0 °F 65% 29.94 in 10.0 mi North 4.6 mph - N/A   Scattered Clouds
9:53 AM 87.1 °F 92.0 °F 70.0 °F 57% 29.95 in 10.0 mi ENE 9.2 mph - N/A   Scattered Clouds
10:53 AM 87.8 °F 93.8 °F 71.6 °F 58% 29.95 in 10.0 mi ENE 8.1 mph - N/A   Scattered Clouds
11:53 AM 89.1 °F 95.0 °F 71.1 °F 55% 29.95 in 10.0 mi ENE 13.8 mph - N/A   Scattered Clouds
12:53 PM 90.0 °F 94.5 °F 69.1 °F 50% 29.95 in 10.0 mi NE 10.4 mph 19.6 mph N/A   Scattered Clouds
1:53 PM 90.0 °F 97.9 °F 73.0 °F 57% 29.94 in 10.0 mi ENE 11.5 mph - N/A   Scattered Clouds
2:53 PM 90.0 °F 96.9 °F 72.0 °F 55% 29.93 in 10.0 mi ENE 13.8 mph - N/A   Scattered Clouds
3:53 PM 90.0 °F 95.4 °F 70.0 °F 52% 29.92 in 10.0 mi ENE 13.8 mph - N/A   Scattered Clouds
4:53 PM 89.1 °F 94.1 °F 70.0 °F 53% 29.92 in 10.0 mi East 10.4 mph - N/A   Scattered Clouds
5:53 PM 87.1 °F 93.6 °F 72.0 °F 61% 29.93 in 10.0 mi ENE 10.4 mph - N/A   Scattered Clouds
6:53 PM 86.0 °F 92.2 °F 72.0 °F 63% 29.94 in 10.0 mi East 11.5 mph - N/A   Mostly Cloudy
7:53 PM 84.9 °F 90.7 °F 72.0 °F 65% 29.94 in 10.0 mi ENE 9.2 mph - N/A   Scattered Clouds
8:53 PM 84.0 °F 90.2 °F 73.0 °F 69% 29.96 in 10.0 mi East 10.4 mph - N/A   Scattered Clouds
9:53 PM 84.0 °F 89.6 °F 72.0 °F 67% 29.99 in 10.0 mi East 9.2 mph - N/A   Scattered Clouds
10:53 PM 84.0 °F 89.6 °F 72.0 °F 67% 29.98 in 10.0 mi ENE 9.2 mph - N/A   Partly Cloudy
11:53 PM 84.0 °F 89.6 °F 72.0 °F 67% 29.99 in 10.0 mi East 8.1 mph - N/A   Partly Cloudy